Find Starlink 37514

NORAD ID: 68899 Int'l Des: 2026-097 Owner: SPXS Country: US Constellation: starlink operational
LEOCIRCULARRETROGRADE

当前视图

正在加载3D地球...

About Starlink 37514

Starlink 37514 (NORAD 68899) is a starlink constellation satellite (v2 mini) launched Apr 30, 2026 by SPXS of US. It operates in LEO, CIRCULAR, RETROGRADE orbit with a mass of 575.00 kg.

关于 Starlink 37514

正在加载描述...

即将过境

Passes for default location (London). Set your location on the main map for personalized predictions.

高度历史

Loading altitude history...

两行轨道根数

1 68899U 26097E 26170.48046743 .00017376 00000-0 53921-3 0 9993
2 68899 97.2860 5.8994 0001653 101.6995 258.4433 15.33450620 7831
Epoch: Jun 19, 2026 • Age: 12 hours

当前状态

高度 470.6 km
速度 7.64 km/s
星下点 41.06°N, 61.9°W
发射日期 Apr 30, 2026
运行时间 0.1 years
类型 internet

技术详情

分类 Payload
质量 575.00 kg
干质量 530.00 kg
总质量 575.00 kg
长度 0.30 m
直径 4.10 m
跨度 29.00 m
形状 Box + pan
制造商 SPXS
平台类型 Starlink V2MO
阶段状态 In Orbit
所有者/国家 SPXS/US

Most Searched